Year,Month,Day,Hour,Minute,Value (Times are PST for windgust in km/hr)
2018,09,11,00,00,4.80
2018,09,11,00,01,6.40
2018,09,11,00,02,3.20
2018,09,11,00,03,3.20
2018,09,11,00,04,3.20
2018,09,11,00,05,3.20
2018,09,11,00,06,3.20
2018,09,11,00,07,3.20
2018,09,11,00,08,3.20
2018,09,11,00,09,1.60
2018,09,11,00,10,3.20
2018,09,11,00,11,1.60
2018,09,11,00,26,1.60
2018,09,11,00,53,1.60
2018,09,11,01,24,1.60
2018,09,11,01,25,3.20
2018,09,11,01,26,3.20
2018,09,11,01,27,1.60
2018,09,11,01,32,4.80
2018,09,11,01,33,4.80
2018,09,11,01,34,4.80
2018,09,11,01,35,3.20
2018,09,11,01,36,1.60
2018,09,11,01,37,3.20
2018,09,11,01,38,1.60
2018,09,11,01,39,3.20
2018,09,11,01,40,3.20
2018,09,11,01,41,3.20
2018,09,11,01,42,3.20
2018,09,11,01,43,1.60
2018,09,11,01,44,3.20
2018,09,11,01,45,4.80
2018,09,11,01,46,4.80
2018,09,11,01,47,4.80
2018,09,11,01,48,3.20
2018,09,11,01,49,4.80
2018,09,11,01,50,4.80
2018,09,11,01,51,4.80
2018,09,11,01,52,3.20
2018,09,11,01,53,3.20
2018,09,11,01,54,3.20
2018,09,11,01,55,4.80
2018,09,11,01,56,4.80
2018,09,11,01,57,4.80
2018,09,11,01,58,4.80
2018,09,11,01,59,4.80
2018,09,11,02,00,4.80
2018,09,11,02,01,3.20
2018,09,11,02,02,4.80
2018,09,11,02,03,4.80
2018,09,11,02,04,4.80
2018,09,11,02,05,3.20
2018,09,11,02,06,4.80
2018,09,11,02,07,3.20
2018,09,11,02,08,3.20
2018,09,11,02,09,3.20
2018,09,11,02,10,3.20
2018,09,11,02,11,3.20
2018,09,11,02,12,4.80
2018,09,11,02,13,3.20
2018,09,11,02,14,1.60
2018,09,11,02,20,1.60
2018,09,11,02,25,1.60
2018,09,11,07,01,4.80
2018,09,11,07,02,3.20
2018,09,11,07,03,1.60
2018,09,11,07,04,1.60
2018,09,11,07,06,3.20
2018,09,11,07,11,3.20
2018,09,11,07,12,4.80
2018,09,11,07,13,4.80
2018,09,11,07,14,1.60
2018,09,11,07,15,4.80
2018,09,11,07,16,3.20
2018,09,11,07,17,4.80
2018,09,11,07,18,4.80
2018,09,11,07,19,3.20
2018,09,11,07,20,1.60
2018,09,11,07,21,3.20
2018,09,11,07,22,3.20
2018,09,11,07,23,1.60
2018,09,11,07,24,1.60
2018,09,11,07,25,1.60
2018,09,11,07,26,1.60
2018,09,11,07,27,1.60
2018,09,11,07,28,1.60
2018,09,11,07,29,3.20
2018,09,11,07,30,3.20
2018,09,11,07,31,1.60
2018,09,11,07,32,3.20
2018,09,11,07,33,3.20
2018,09,11,07,34,3.20
2018,09,11,07,35,1.60
2018,09,11,07,42,1.60
2018,09,11,07,44,1.60
2018,09,11,07,45,1.60
2018,09,11,07,46,4.80
2018,09,11,07,47,1.60
2018,09,11,07,48,1.60
2018,09,11,07,49,1.60
2018,09,11,07,50,1.60
2018,09,11,07,51,1.60
2018,09,11,07,52,3.20
2018,09,11,07,53,1.60
2018,09,11,08,00,1.60
2018,09,11,08,10,1.60
2018,09,11,08,12,3.20
2018,09,11,08,13,1.60
2018,09,11,08,43,3.20
2018,09,11,08,44,3.20
2018,09,11,08,45,3.20
2018,09,11,08,49,1.60
2018,09,11,08,50,1.60
2018,09,11,08,51,1.60
2018,09,11,09,01,4.80
2018,09,11,09,02,3.20
2018,09,11,09,03,1.60
2018,09,11,09,04,3.20
2018,09,11,09,05,1.60
2018,09,11,09,06,4.80
2018,09,11,09,07,4.80
2018,09,11,09,08,4.80
2018,09,11,09,09,4.80
2018,09,11,09,10,1.60
2018,09,11,09,12,3.20
2018,09,11,09,13,1.60
2018,09,11,09,16,3.20
2018,09,11,09,17,3.20
2018,09,11,09,18,1.60
2018,09,11,09,20,1.60
2018,09,11,09,21,1.60
2018,09,11,09,37,1.60
2018,09,11,09,38,1.60
2018,09,11,09,39,1.60
2018,09,11,09,40,1.60
2018,09,11,09,41,1.60
2018,09,11,09,43,3.20
2018,09,11,09,46,3.20
2018,09,11,09,47,3.20
2018,09,11,09,48,1.60
2018,09,11,09,49,1.60
2018,09,11,09,52,3.20
2018,09,11,09,53,1.60
2018,09,11,09,54,1.60
2018,09,11,09,55,1.60
2018,09,11,09,57,1.60
2018,09,11,10,00,3.20
2018,09,11,10,01,1.60
2018,09,11,10,02,1.60
2018,09,11,10,03,3.20
2018,09,11,10,04,3.20
2018,09,11,10,08,4.80
2018,09,11,10,09,4.80
2018,09,11,10,10,3.20
2018,09,11,10,11,1.60
2018,09,11,10,12,1.60
2018,09,11,10,14,1.60
2018,09,11,10,18,3.20
2018,09,11,10,19,11.30
2018,09,11,10,20,12.90
2018,09,11,10,21,11.30
2018,09,11,10,22,6.40
2018,09,11,10,23,6.40
2018,09,11,10,24,4.80
2018,09,11,10,25,4.80
2018,09,11,10,26,4.80
2018,09,11,10,27,8.10
2018,09,11,10,28,11.30
2018,09,11,10,29,3.20
2018,09,11,10,30,6.40
2018,09,11,10,31,6.40
2018,09,11,10,32,8.10
2018,09,11,10,33,8.10
2018,09,11,10,34,6.40
2018,09,11,10,35,3.20
2018,09,11,10,36,4.80
2018,09,11,10,37,6.40
2018,09,11,10,38,6.40
2018,09,11,10,39,6.40
2018,09,11,10,40,4.80
2018,09,11,10,41,3.20
2018,09,11,10,42,6.40
2018,09,11,10,43,8.10
2018,09,11,10,44,3.20
2018,09,11,10,45,4.80
2018,09,11,10,46,3.20
2018,09,11,10,47,6.40
2018,09,11,10,48,8.10
2018,09,11,10,49,4.80
2018,09,11,10,50,3.20
2018,09,11,10,51,8.10
2018,09,11,10,52,8.10
2018,09,11,10,53,3.20
2018,09,11,10,54,3.20
2018,09,11,10,55,1.60
2018,09,11,10,56,1.60
2018,09,11,10,57,3.20
2018,09,11,10,58,3.20
2018,09,11,10,59,6.40
2018,09,11,11,00,6.40
2018,09,11,11,01,8.10
2018,09,11,11,02,4.80
2018,09,11,11,03,3.20
2018,09,11,11,04,3.20
2018,09,11,11,05,6.40
2018,09,11,11,06,6.40
2018,09,11,11,07,3.20
2018,09,11,11,08,8.10
2018,09,11,11,09,6.40
2018,09,11,11,10,4.80
2018,09,11,11,11,6.40
2018,09,11,11,12,4.80
2018,09,11,11,13,3.20
2018,09,11,11,14,1.60
2018,09,11,11,15,4.80
2018,09,11,11,16,6.40
2018,09,11,11,17,4.80
2018,09,11,11,18,4.80
2018,09,11,11,19,3.20
2018,09,11,11,20,1.60
2018,09,11,11,21,3.20
2018,09,11,11,22,3.20
2018,09,11,11,23,4.80
2018,09,11,11,24,3.20
2018,09,11,11,25,3.20
2018,09,11,11,26,1.60
2018,09,11,11,27,3.20
2018,09,11,11,28,3.20
2018,09,11,11,29,4.80
2018,09,11,11,30,3.20
2018,09,11,11,31,3.20
2018,09,11,11,32,4.80
2018,09,11,11,33,4.80
2018,09,11,11,34,3.20
2018,09,11,11,35,3.20
2018,09,11,11,36,6.40
2018,09,11,11,37,8.10
2018,09,11,11,38,4.80
2018,09,11,11,39,3.20
2018,09,11,11,40,3.20
2018,09,11,11,41,8.10
2018,09,11,11,42,6.40
2018,09,11,11,43,4.80
2018,09,11,11,44,9.60
2018,09,11,11,45,9.60
2018,09,11,11,46,3.20
2018,09,11,11,47,3.20
2018,09,11,11,48,4.80
2018,09,11,11,49,6.40
2018,09,11,11,50,4.80
2018,09,11,11,51,3.20
2018,09,11,11,52,4.80
2018,09,11,11,53,4.80
2018,09,11,11,54,4.80
2018,09,11,11,55,4.80
2018,09,11,11,56,6.40
2018,09,11,11,57,4.80
2018,09,11,11,58,4.80
2018,09,11,11,59,6.40
2018,09,11,12,00,8.10
2018,09,11,12,01,9.60
2018,09,11,12,02,6.40
2018,09,11,12,03,9.60
2018,09,11,12,04,3.20
2018,09,11,12,05,8.10
2018,09,11,12,06,6.40
2018,09,11,12,07,4.80
2018,09,11,12,08,1.60
2018,09,11,12,09,3.20
2018,09,11,12,10,3.20
2018,09,11,12,11,3.20
2018,09,11,12,12,1.60
2018,09,11,12,13,6.40
2018,09,11,12,14,3.20
2018,09,11,12,15,4.80
2018,09,11,12,16,3.20
2018,09,11,12,17,3.20
2018,09,11,12,18,4.80
2018,09,11,12,19,8.10
2018,09,11,12,20,8.10
2018,09,11,12,21,8.10
2018,09,11,12,22,11.30
2018,09,11,12,23,8.10
2018,09,11,12,24,9.60
2018,09,11,12,25,11.30
2018,09,11,12,26,8.10
2018,09,11,12,27,11.30
2018,09,11,12,28,8.10
2018,09,11,12,29,11.30
2018,09,11,12,30,9.60
2018,09,11,12,31,12.90
2018,09,11,12,32,12.90
2018,09,11,12,33,12.90
2018,09,11,12,34,12.90
2018,09,11,12,35,8.10
2018,09,11,12,36,11.30
2018,09,11,12,37,12.90
2018,09,11,12,38,3.20
2018,09,11,12,39,12.90
2018,09,11,12,40,3.20
2018,09,11,12,41,9.60
2018,09,11,12,42,6.40
2018,09,11,12,43,4.80
2018,09,11,12,44,6.40
2018,09,11,12,45,9.60
2018,09,11,12,46,9.60
2018,09,11,12,47,9.60
2018,09,11,12,48,12.90
2018,09,11,12,49,6.40
2018,09,11,12,50,11.30
2018,09,11,12,51,11.30
2018,09,11,12,52,9.60
2018,09,11,12,53,8.10
2018,09,11,12,54,9.60
2018,09,11,12,55,8.10
2018,09,11,12,56,9.60
2018,09,11,12,57,11.30
2018,09,11,12,58,12.90
2018,09,11,12,59,12.90
2018,09,11,13,00,6.40
2018,09,11,13,01,8.10
2018,09,11,13,02,9.60
2018,09,11,13,03,8.10
2018,09,11,13,04,12.90
2018,09,11,13,05,20.90
2018,09,11,13,06,17.70
2018,09,11,13,07,11.30
2018,09,11,13,08,16.10
2018,09,11,13,09,16.10
2018,09,11,13,10,17.70
2018,09,11,13,11,19.30
2018,09,11,13,12,19.30
2018,09,11,13,13,19.30
2018,09,11,13,14,22.50
2018,09,11,13,15,20.90
2018,09,11,13,16,16.10
2018,09,11,13,17,14.50
2018,09,11,13,18,12.90
2018,09,11,13,19,12.90
2018,09,11,13,20,12.90
2018,09,11,13,21,19.30
2018,09,11,13,22,19.30
2018,09,11,13,23,16.10
2018,09,11,13,24,19.30
2018,09,11,13,25,16.10
2018,09,11,13,26,20.90
2018,09,11,13,27,19.30
2018,09,11,13,28,20.90
2018,09,11,13,29,14.50
2018,09,11,13,30,12.90
2018,09,11,13,31,14.50
2018,09,11,13,32,16.10
2018,09,11,13,33,16.10
2018,09,11,13,34,12.90
2018,09,11,13,35,14.50
2018,09,11,13,36,19.30
2018,09,11,13,37,14.50
2018,09,11,13,38,17.70
2018,09,11,13,39,16.10
2018,09,11,13,40,17.70
2018,09,11,13,41,16.10
2018,09,11,13,42,17.70
2018,09,11,13,43,17.70
2018,09,11,13,44,16.10
2018,09,11,13,45,12.90
2018,09,11,13,46,14.50
2018,09,11,13,47,19.30
2018,09,11,13,48,16.10
2018,09,11,13,49,17.70
2018,09,11,13,50,19.30
2018,09,11,13,51,14.50
2018,09,11,13,52,14.50
2018,09,11,13,53,16.10
2018,09,11,13,54,12.90
2018,09,11,13,55,12.90
2018,09,11,13,56,16.10
2018,09,11,13,57,12.90
2018,09,11,13,58,12.90
2018,09,11,13,59,8.10
2018,09,11,14,00,14.50
2018,09,11,14,01,14.50
2018,09,11,14,02,14.50
2018,09,11,14,03,12.90
2018,09,11,14,04,8.10
2018,09,11,14,05,14.50
2018,09,11,14,06,12.90
2018,09,11,14,07,14.50
2018,09,11,14,08,16.10
2018,09,11,14,09,16.10
2018,09,11,14,10,14.50
2018,09,11,14,11,12.90
2018,09,11,14,12,14.50
2018,09,11,14,13,16.10
2018,09,11,14,14,19.30
2018,09,11,14,15,16.10
2018,09,11,14,16,12.90
2018,09,11,14,17,11.30
2018,09,11,14,18,12.90
2018,09,11,14,19,17.70
2018,09,11,14,20,14.50
2018,09,11,14,21,17.70
2018,09,11,14,22,14.50
2018,09,11,14,23,12.90
2018,09,11,14,24,16.10
2018,09,11,14,25,16.10
2018,09,11,14,26,8.10
2018,09,11,14,27,6.40
2018,09,11,14,28,4.80
2018,09,11,14,29,4.80
2018,09,11,14,30,12.90
2018,09,11,14,31,11.30
2018,09,11,14,32,9.60
2018,09,11,14,33,8.10
2018,09,11,14,34,8.10
2018,09,11,14,35,6.40
2018,09,11,14,36,9.60
2018,09,11,14,37,9.60
2018,09,11,14,38,4.80
2018,09,11,14,39,11.30
2018,09,11,14,40,11.30
2018,09,11,14,41,11.30
2018,09,11,14,42,14.50
2018,09,11,14,43,14.50
2018,09,11,14,44,12.90
2018,09,11,14,45,14.50
2018,09,11,14,46,19.30
2018,09,11,14,47,9.60
2018,09,11,14,48,11.30
2018,09,11,14,49,12.90
2018,09,11,14,50,12.90
2018,09,11,14,51,12.90
2018,09,11,14,52,6.40
2018,09,11,14,53,8.10
2018,09,11,14,54,9.60
2018,09,11,14,55,12.90
2018,09,11,14,56,12.90
2018,09,11,14,57,14.50
2018,09,11,14,58,12.90
2018,09,11,14,59,12.90
2018,09,11,15,00,8.10
2018,09,11,15,01,8.10
2018,09,11,15,02,12.90
2018,09,11,15,03,12.90
2018,09,11,15,04,14.50
2018,09,11,15,05,14.50
2018,09,11,15,06,9.60
2018,09,11,15,07,14.50
2018,09,11,15,08,11.30
2018,09,11,15,09,12.90
2018,09,11,15,10,12.90
2018,09,11,15,11,9.60
2018,09,11,15,12,6.40
2018,09,11,15,13,6.40
2018,09,11,15,14,8.10
2018,09,11,15,15,12.90
2018,09,11,15,16,9.60
2018,09,11,15,17,9.60
2018,09,11,15,18,4.80
2018,09,11,15,19,8.10
2018,09,11,15,20,9.60
2018,09,11,15,21,14.50
2018,09,11,15,22,14.50
2018,09,11,15,23,8.10
2018,09,11,15,24,11.30
2018,09,11,15,25,9.60
2018,09,11,15,26,9.60
2018,09,11,15,27,9.60
2018,09,11,15,28,14.50
2018,09,11,15,29,14.50
2018,09,11,15,30,8.10
2018,09,11,15,31,12.90
2018,09,11,15,32,9.60
2018,09,11,15,33,8.10
2018,09,11,15,34,8.10
2018,09,11,15,35,6.40
2018,09,11,15,36,9.60
2018,09,11,15,37,8.10
2018,09,11,15,38,9.60
2018,09,11,15,39,9.60
2018,09,11,15,40,9.60
2018,09,11,15,41,8.10
2018,09,11,15,42,9.60
2018,09,11,15,43,11.30
2018,09,11,15,44,6.40
2018,09,11,15,45,3.20
2018,09,11,15,46,6.40
2018,09,11,15,47,11.30
2018,09,11,15,48,11.30
2018,09,11,15,49,9.60
2018,09,11,15,50,8.10
2018,09,11,15,51,9.60
2018,09,11,15,52,8.10
2018,09,11,15,53,9.60
2018,09,11,15,54,8.10
2018,09,11,15,55,6.40
2018,09,11,15,56,14.50
2018,09,11,15,57,6.40
2018,09,11,15,58,8.10
2018,09,11,15,59,6.40
2018,09,11,16,00,6.40
2018,09,11,16,01,9.60
2018,09,11,16,02,8.10
2018,09,11,16,03,4.80
2018,09,11,16,04,6.40
2018,09,11,16,05,9.60
2018,09,11,16,06,6.40
2018,09,11,16,07,11.30
2018,09,11,16,08,9.60
2018,09,11,16,09,6.40
2018,09,11,16,10,11.30
2018,09,11,16,11,6.40
2018,09,11,16,12,8.10
2018,09,11,16,13,8.10
2018,09,11,16,14,9.60
2018,09,11,16,15,11.30
2018,09,11,16,16,11.30
2018,09,11,16,17,6.40
2018,09,11,16,18,6.40
2018,09,11,16,19,6.40
2018,09,11,16,20,6.40
2018,09,11,16,21,6.40
2018,09,11,16,22,8.10
2018,09,11,16,23,6.40
2018,09,11,16,24,9.60
2018,09,11,16,25,9.60
2018,09,11,16,26,9.60
2018,09,11,16,27,6.40
2018,09,11,16,28,12.90
2018,09,11,16,29,16.10
2018,09,11,16,30,16.10
2018,09,11,16,31,8.10
2018,09,11,16,32,9.60
2018,09,11,16,33,12.90
2018,09,11,16,34,14.50
2018,09,11,16,35,9.60
2018,09,11,16,36,6.40
2018,09,11,16,37,3.20
2018,09,11,16,38,8.10
2018,09,11,16,39,6.40
2018,09,11,16,40,12.90
2018,09,11,16,41,8.10
2018,09,11,16,42,12.90
2018,09,11,16,43,8.10
2018,09,11,16,44,6.40
2018,09,11,16,45,8.10
2018,09,11,16,46,6.40
2018,09,11,16,47,11.30
2018,09,11,16,48,12.90
2018,09,11,16,49,14.50
2018,09,11,16,50,11.30
2018,09,11,16,51,6.40
2018,09,11,16,52,12.90
2018,09,11,16,53,11.30
2018,09,11,16,54,8.10
2018,09,11,16,55,11.30
2018,09,11,16,56,9.60
2018,09,11,16,57,11.30
2018,09,11,16,58,4.80
2018,09,11,16,59,4.80
2018,09,11,17,00,6.40
2018,09,11,17,01,8.10
2018,09,11,17,02,9.60
2018,09,11,17,03,8.10
2018,09,11,17,04,9.60
2018,09,11,17,05,6.40
2018,09,11,17,06,1.60
2018,09,11,17,07,3.20
2018,09,11,17,08,6.40
2018,09,11,17,09,4.80
2018,09,11,17,10,4.80
2018,09,11,17,11,6.40
2018,09,11,17,12,4.80
2018,09,11,17,13,4.80
2018,09,11,17,14,3.20
2018,09,11,17,15,3.20
2018,09,11,17,16,4.80
2018,09,11,17,17,4.80
2018,09,11,17,18,1.60
2018,09,11,17,20,3.20
2018,09,11,17,21,3.20
2018,09,11,17,22,1.60
2018,09,11,17,23,1.60
2018,09,11,17,26,1.60
2018,09,11,17,27,1.60
2018,09,11,17,35,1.60
2018,09,11,17,36,1.60
2018,09,11,17,37,1.60
2018,09,11,17,38,1.60
2018,09,11,17,39,4.80
2018,09,11,17,40,4.80
2018,09,11,17,41,3.20
2018,09,11,17,42,1.60
2018,09,11,17,43,3.20
2018,09,11,17,44,3.20
2018,09,11,17,45,3.20
2018,09,11,17,46,3.20
2018,09,11,17,47,3.20
2018,09,11,17,48,6.40
2018,09,11,17,49,4.80
2018,09,11,17,50,4.80
2018,09,11,17,51,6.40
2018,09,11,17,52,6.40
2018,09,11,17,53,4.80
2018,09,11,17,54,4.80
2018,09,11,17,55,4.80
2018,09,11,17,56,3.20
2018,09,11,17,57,3.20
2018,09,11,17,58,4.80
2018,09,11,17,59,4.80
2018,09,11,18,00,4.80
2018,09,11,18,01,4.80
2018,09,11,18,02,4.80
2018,09,11,18,03,3.20
2018,09,11,18,04,3.20
2018,09,11,18,05,4.80
2018,09,11,18,06,3.20
2018,09,11,18,07,3.20
2018,09,11,18,08,4.80
2018,09,11,18,09,4.80
2018,09,11,18,10,4.80
2018,09,11,18,11,3.20
2018,09,11,18,12,3.20
2018,09,11,18,13,4.80
2018,09,11,18,14,3.20
2018,09,11,18,15,3.20
2018,09,11,18,16,4.80
2018,09,11,18,17,3.20
2018,09,11,18,18,3.20
2018,09,11,18,19,1.60
2018,09,11,18,20,3.20
2018,09,11,18,21,3.20
2018,09,11,18,22,4.80
2018,09,11,18,23,4.80
2018,09,11,18,24,3.20
2018,09,11,18,25,4.80
2018,09,11,18,26,3.20
2018,09,11,18,27,3.20
2018,09,11,18,28,4.80
2018,09,11,18,29,3.20
2018,09,11,18,30,3.20
2018,09,11,18,31,3.20
2018,09,11,18,32,3.20
2018,09,11,18,33,1.60
2018,09,11,18,34,1.60
2018,09,11,18,36,1.60
2018,09,11,18,37,1.60
2018,09,11,18,38,1.60
2018,09,11,18,39,1.60
2018,09,11,18,40,1.60
2018,09,11,18,48,1.60
2018,09,11,19,05,1.60
2018,09,11,19,06,1.60
2018,09,11,19,10,1.60
2018,09,11,19,11,1.60
2018,09,11,19,16,1.60
2018,09,11,19,17,1.60
2018,09,11,19,20,3.20
2018,09,11,19,21,1.60
2018,09,11,20,33,1.60
2018,09,11,20,34,1.60
2018,09,11,20,37,1.60
2018,09,11,20,38,1.60
2018,09,11,20,39,1.60
2018,09,11,20,41,1.60
2018,09,11,20,42,3.20
2018,09,11,20,43,3.20
2018,09,11,20,44,3.20
2018,09,11,20,45,3.20
2018,09,11,20,46,3.20
2018,09,11,20,47,3.20
2018,09,11,20,48,4.80
2018,09,11,20,49,3.20
2018,09,11,20,50,3.20
2018,09,11,20,51,3.20
2018,09,11,20,52,3.20
2018,09,11,20,53,3.20
2018,09,11,20,54,3.20
2018,09,11,20,55,3.20
2018,09,11,20,56,3.20
2018,09,11,20,57,3.20
2018,09,11,20,58,3.20
2018,09,11,20,59,4.80
2018,09,11,21,00,4.80
2018,09,11,21,01,4.80
2018,09,11,21,02,3.20
2018,09,11,21,03,4.80
2018,09,11,21,04,3.20
2018,09,11,21,05,4.80
2018,09,11,21,06,3.20
2018,09,11,21,07,3.20
2018,09,11,21,08,3.20
2018,09,11,21,09,3.20
2018,09,11,21,11,1.60
2018,09,11,21,12,1.60
2018,09,11,21,13,3.20
2018,09,11,21,14,1.60
2018,09,11,21,15,3.20
2018,09,11,21,16,1.60
2018,09,11,21,17,1.60
2018,09,11,21,19,1.60
2018,09,11,21,22,1.60
2018,09,11,21,24,4.80
2018,09,11,21,25,4.80
2018,09,11,21,26,3.20
2018,09,11,21,27,3.20
2018,09,11,21,28,4.80
2018,09,11,21,29,4.80
2018,09,11,21,30,4.80
2018,09,11,21,31,3.20
2018,09,11,21,32,3.20
2018,09,11,21,33,1.60
2018,09,11,21,34,1.60
2018,09,11,21,35,1.60
2018,09,11,21,36,3.20
2018,09,11,21,37,3.20
2018,09,11,21,42,1.60
2018,09,11,21,45,1.60
2018,09,11,21,54,1.60
2018,09,11,21,55,3.20
2018,09,11,21,56,3.20
2018,09,11,21,57,3.20
2018,09,11,21,58,3.20
2018,09,11,21,59,3.20
2018,09,11,22,00,3.20
2018,09,11,22,04,1.60
2018,09,11,22,09,1.60
2018,09,11,22,11,1.60
2018,09,11,22,12,1.60
2018,09,11,22,15,3.20
2018,09,11,22,16,3.20
2018,09,11,22,17,4.80
2018,09,11,22,18,3.20
2018,09,11,22,19,3.20
2018,09,11,22,20,1.60
2018,09,11,22,21,1.60
2018,09,11,22,28,1.60
2018,09,11,22,29,1.60
2018,09,11,22,30,1.60
2018,09,11,22,31,1.60
2018,09,11,22,32,1.60
2018,09,11,22,33,1.60
2018,09,11,22,35,1.60
2018,09,11,22,43,1.60
2018,09,11,22,49,1.60
2018,09,11,22,50,3.20
2018,09,11,22,51,1.60
2018,09,11,22,52,3.20
2018,09,11,22,53,3.20
2018,09,11,22,54,3.20
2018,09,11,22,55,1.60
